Location: Unspecified
(0.0000°N, 0.0000°E)
Time: 16:22:45
(UTC+00:00)

SR - Pass Details

Date: 21 November 2019
Orbit: 573 x 882 km, 66.7° (Epoch: 12 December)

Event Time Altitude Azimuth Distance (km) Brightness Sun altitude
Rises 01:11:31 0° 327° (NNW) 3,357 - -61.1°
Reaches altitude 10° 01:14:10 10° 320° (NW) 2,385 - -60.6°
Maximum altitude 01:19:17 41° 251° (WSW) 1,102 - -59.7°
Drops below altitude 10° 01:24:01 10° 182° (S) 2,202 - -58.8°
Sets 01:26:23 0° 174° (S) 3,071 - -58.4°
